HUBBLE
1 20580U 90037B 10119.57451948 .00000508 00000-0 26072-4 0 5573
2 20580 028.4692 197.2116 0003291 049.1055 310.9857 15.00960945897448
ISS
1 25544U 98067A 10119.78946759 .00012045 00000-0 88903-4 0 622
2 25544 051.6447 118.9583 0009681 254.0348 111.3677 15.73444830655858
CO-58
1 28895U 05043F 10119.66148547 .00000161 00000-0 43012-4 0 5704
2 28895 098.0236 005.7296 0019113 077.2560 283.0816 14.59881398239900
FALCON
1 30776U 07006E 10119.87668917 .00000874 00000-0 65672-4 0 8167
2 30776 035.4345 337.5859 0000120 355.6348 004.4365 15.03622112172786
MAST
1 31126U 07012K 10119.00414963 .00000199 00000-0 55258-4 0 8528
2 31126 097.9425 163.5467 0095304 019.7035 340.7813 14.53579819160914
CAPE1
1 31130U 07012P 10119.00817199 .00000449 00000-0 11382-3 0 8720
2 31130 097.9435 161.0586 0103348 027.5821 333.0804 14.52169523160521
COMPASS
1 32787U 08021E 10119.07909339 .00000535 00000-0 74293-4 0 6573
2 32787 097.8974 184.5029 0016993 085.1464 275.1715 14.81842806108221
AAUSAT2
1 32788U 08021F 10118.68174876 .00000717 00000-0 96925-4 0 6512
2 32788 097.8992 184.2307 0017115 087.6887 272.6277 14.81983713108173
DO-64
1 32789U 08021G 10118.69506174 .00000977 00000-0 12925-3 0 6676
2 32789 097.9043 184.6604 0016934 087.1687 273.1456 14.82100957108174
CO-66
1 32791U 08021J 10119.63423782 .00000737 00000-0 10019-3 0 6493
2 32791 097.8996 185.0710 0017264 081.7284 278.5888 14.81636413108264
RS-30
1 32953U 08025A 10119.75513246 .00000010 00000-0 00000 0 0 6461
2 32953 082.5012 059.7908 0017634 205.3053 154.7165 12.43005069 87722
TACSAT-3
1 35001U 09028A 10119.39617662 .00004401 00000-0 10777-3 0 2740
2 35001 040.4543 147.1068 0022125 356.5303 003.5352 15.41340632 53101
PHARMSAT
1 35002U 09028B 10119.23770348 .00004194 00000-0 10088-3 0 2592
2 35002 040.4703 146.2380 0024651 359.9945 000.0863 15.41909592 53095
HAWKSAT1
1 35003U 09028C 10119.23865335 .00008667 00000-0 18551-3 0 2765
2 35003 040.4620 142.3723 0022014 011.1038 349.0263 15.44541126 53147
CP6
1 35004U 09028D 10119.19498446 .00010202 00000-0 21265-3 0 2692
2 35004 040.4600 142.0476 0021280 012.4753 347.6585 15.45202223 53133
AEROCUB3
1 35005U 09028E 10119.19139136 .00028147 00000-0 51659-3 0 2946
2 35005 040.4741 141.4714 0017415 020.1900 339.9586 15.48430985 53140
DRAGNSAT
1 35690U 09038B 10076.22711312 .05715194 12509-4 31481-3 0 3162
2 35690 051.6170 315.4586 0004999 310.9891 057.3269 16.42150010 36561
POLLUX
1 35693U 09038E 10087.99866888 .23496735 12787-4 17715-3 0 3529
2 35693 051.6099 254.5746 0006270 294.4866 097.5899 16.52338462 38395
CASTOR
1 35694U 09038F 10119.89673469 .00061264 12747-4 15845-3 0 3298
2 35694 051.6361 097.4095 0005339 039.4492 320.6938 15.95407131 43336
METEOR-M
1 35865U 09049A 10119.71857205 .00000176 00000-0 10000-3 0 2492
2 35865 098.7629 173.8542 0002702 124.6839 235.4546 14.21829871 31831
RS-38
1 35869U 09049E 10119.69524388 .00000177 00000-0 10000-3 0 2543
2 35869 098.7606 173.8580 0004988 136.9294 223.2232 14.21980425 31831
